Simultaneous Nadir Overpasses (SNOs) Predictions

Prediction of SNOs between GOES-17 and METOP-C Satellite Orbit:

Table of predicted SNOs for the next 14.0 days since TLE Epoch: 9/26/2020
Index Date Time (GOES-17) GOES-17 Lat,Lon METOP-C Lat,Lon Distance(km) Time Diff (sec)
1 09/26/2020 18:26:03 -0.04,-137.20 -0.84,-133.49 422.45 80
2 09/28/2020 06:45:04 0.04,-137.20 -0.17,-138.09 101.74 80
3 09/29/2020 06:21:44 0.04,-137.20 0.98,-133.10 467.23 80
4 09/30/2020 18:40:34 -0.04,-137.19 0.09,-137.65 52.96 80
5 10/03/2020 06:38:53 0.04,-137.18 -0.00,-137.25 9.27 80
6 10/05/2020 18:39:44 -0.04,-137.15 -0.12,-136.82 38.35 80
7 10/07/2020 06:58:44 0.04,-137.13 -0.92,-141.41 487.22 80
8 10/08/2020 06:38:03 0.04,-137.12 0.17,-136.41 80.41 80
9 10/09/2020 18:54:13 -0.03,-137.08 0.86,-140.96 442.52 80
